Regional Weather Roundup
Issued by NWS

Home | Current Version | Previous Version | Graphics & Text | Print | Product List | Glossary On
Versions: 1 2 3 4 5 6 7 8 9 10 11 12 13 14 15 16 17 18 19 20 21 22 23 24 25 26 27 28 29 30 31 32 33 34 35 36 37 38 39 40 41 42 43 44 45 46 47 48
000
ASUS45 KTFX 040310
RWRMT
MONTANA REGIONAL WEATHER ROUNDUP
NATIONAL WEATHER SERVICE GREAT FALLS MT
900 PM MDT TUE MAY 03 2016

NOTE: "FAIR" INDICATES FEW OR NO CLOUDS BELOW 12000 FEET WITH NO
SIGNIFICANT WEATHER AND/OR OBSTRUCTIONS TO VISIBILITY.

MTZ001>007-043-040400-
WEST OF THE DIVIDE

CITY           SKY/WX    TMP DP  RH WIND       PRES   REMARKS
KALISPELL      CLEAR     65  43  44 CALM      29.97S
MISSOULA       CLEAR     70  38  31 N5        29.98S
BUTTE          CLEAR     59  28  30 S7        30.12R
MULLAN PASS    CLEAR     59  21  23 VRB5      30.14S
$$

MTZ008-052>055-040400-
SOUTHWEST MONTANA

CITY           SKY/WX    TMP DP  RH WIND       PRES   REMARKS
BOZEMAN        CLEAR     66  30  26 S7        30.08S
DILLON         CLEAR     63  23  21 S10       30.10R
ENNIS          CLEAR     59  28  31 SE13      30.18R
$$

MTZ009-010-012-014-046-048-049-054-040400-
EAST SLOPES AND CENTRAL MONTANA

CITY           SKY/WX    TMP DP  RH WIND       PRES   REMARKS
CUT BANK         N/A     60  36  40 W10       30.01S
GREAT FALLS    CLEAR     66  38  35 SE7       30.02S
MALMSTROM AFB  CLEAR     61  44  53 SE7       30.02R
HELENA         CLEAR     70  33  25 S6        30.03R
$$

MTZ011-013-016-021-045-047-050-051-040400-
NORTH CENTRAL MONTANA

CITY           SKY/WX    TMP DP  RH WIND       PRES   REMARKS
HAVRE          CLEAR     68  48  48 CALM      29.99S
LEWISTOWN      CLEAR     62  41  46 E9        30.09R
N BAR RANCH      N/A     59  39  47 CALM      30.14R
$$

MTZ017>020-022>027-061-062-040400-
NORTHEAST MONTANA

CITY           SKY/WX    TMP DP  RH WIND       PRES   REMARKS
GLASGOW        CLEAR     67  39  35 S7        30.03R
JORDAN           N/A     63  43  48 E3        30.05S
SIDNEY         CLEAR     66  39  37 CALM      30.04S
WOLF POINT     CLEAR     66  43  43 CALM      30.02S
$$

MTZ028>42-056>058-040400-
SOUTHCENTRAL AND SOUTHEAST MONTANA

CITY           SKY/WX    TMP DP  RH WIND       PRES   REMARKS
BAKER          CLEAR     60  40  47 CALM      30.09S
BILLINGS       CLEAR     69  35  28 SE8       30.09S
LIVINGSTON     CLEAR     56  36  47 S10       30.08S
MILES CITY     CLEAR     71  35  26 CALM      30.05S
$$

REGIONAL REPORTS...DAKOTAS

CITY           SKY/WX    TMP DP  RH WIND       PRES   REMARKS
WILLISTON      CLEAR     62  40  44 E5        30.04R
MINOT          CLEAR     56  26  31 NW3       30.03R
DICKINSON      CLEAR     61  37  41 N5        30.05R
BEACH            N/A     57  37  47 CALM      30.11R
CROSBY           N/A     59  37  44 SE7       30.06R
TIOGA            N/A     55  36  47 E6        30.10S
WATFORD CITY     N/A     57  39  51 E3        30.05S
BISMARCK       CLEAR     60  28  29 NE10      30.02R
GRAND FORKS    CLEAR     50  31  48 N10       29.98R
FARGO          CLEAR     56  28  34 N17       29.94R
BUFFALO SD       N/A     65  35  33 N10       30.03R
RAPID CITY     CLEAR     54  40  59 N10       30.09R
$$

REGIONAL REPORTS...WYOMING/IDAHO/WASHINGTON

CITY           SKY/WX    TMP DP  RH WIND       PRES   REMARKS
GILLETTE       CLEAR     47  40  76 SW6       30.16R
SHERIDAN       CLEAR     54  42  64 SW5       30.13R
BUFFALO WY     CLEAR     55  37  50 W8        30.19S
CODY           CLEAR     63  30  29 SE6       30.15R
YELLOWSTONE LA   N/A     39  28  64 NW3       30.32R
IDAHO FALLS    CLEAR     62  29  28 CALM      30.15S
SALMON         CLEAR     61  34  36 CALM      30.01R
BOISE          CLEAR     71  32  23 SE7       30.00S
SPOKANE        MOCLDY    75  36  24 CALM      29.95S
$$

REGIONAL REPORTS...ALBERTA

CITY           SKY/WX    TMP DP  RH WIND       PRES   REMARKS
EDMONTON       CLEAR     70  36  28 CALM      29.81F
CALGARY        PTCLDY    73  18  12 W9        29.91R
LETHBRIDGE     PTCLDY    63  30  29 W10       29.94S
MEDICINE HAT   CLEAR     68  41  37 SE10      29.92S
WATERTON GATE    N/A     59  32  36 SW3         N/A
MILK RIVER       N/A     63  39  42 W3          N/A
$$

REGIONAL REPORTS...SASKATCHEWAN

CITY           SKY/WX    TMP DP  RH WIND       PRES   REMARKS
SWIFT CURRENT  CLEAR     66  37  34 S9        29.98S
REGINA         PTCLDY    63  39  42 SE12      30.00S
SASKATOON      PTCLDY    68  37  32 S8        29.93F
CYPRESS HILLS    N/A     61  34  36 S6          N/A
VAL MARIE        N/A     63  39  42 S7          N/A
ROCKGLEN         N/A     66  34  30 S5          N/A
ASSINIBOIA       N/A     73  36  25 S6          N/A
$$



USA.gov is the U.S. government's official web portal to all federal, state and local government web resources and services.